Back to catalog

STARLINK-32311

AliveCommunicationsVLEO
NORAD 62114·PAYLOAD·🇺🇸 United States

Launched Nov 27, 2024 from Cape Canaveral Space Force Station

Loading…

Next Passes (next 24 hours)

TLE

FreshSource: CelesTrak SupGP

Epoch: Sep 14, 2026, 14:22 UTC

1 62114C 24222A   26257.59909722  .00045789  00000+0  16584-2 0  2576
2 62114  43.0001 134.3421 0001547 262.2350  87.7939 15.27556540    13

Track STARLINK-32311 in real time with AllMySat

Download on the App Store